Decimomannu, Italy

4:22 PM CEST on June 27, 2017 (GMT +0200)
Decimomannu Mil

Weather History for LIED - September, 2012

Change the Weather History Date:

Saturday, September 8, 2012

  Actual Average Record
Temperature  
Mean Temperature 74 °F -  
Max Temperature 86 °F 81 °F 91 °F (2008)
Min Temperature 62 °F 59 °F 57 °F (2002)
Cooling Degree Days 9    
Growing Degree Days 24 (Base 50)    
Moisture  
Dew Point 60 °F    
Average Humidity 60    
Maximum Humidity 83    
Minimum Humidity 24    
Precipitation  
Precipitation 0.00 in 0.05 in - ()
Sea Level Pressure  
Sea Level Pressure 30.07 in    
Wind  
Wind Speed 4 mph ()    
Max Wind Speed 15 mph    
Max Gust Speed -    
Visibility 6.4 miles    
Events      
Averages and records for this station are not official NWS values.
T = Trace of Precipitation, MM = Missing Value Source: Averaged Metar Reports

Daily Weather History Graph

Daily Weather History Graph

Search for Another Location

Airport or City:

Trip Planner

Search our weather history database for the weather conditions in past years. The results will help you decide how hot, cold, wet, or windy it might be!

Date:

Astronomy

Sep. 08, 2012 Rise Set
Actual Time 6:59 AM CEST 7:43 PM CEST
Civil Twilight 6:32 AM CEST 8:10 PM CEST
Nautical Twilight 5:59 AM CEST 8:42 PM CEST
Astronomical Twilight 5:26 AM CEST 9:15 PM CEST
Moon No Moon Rise 2:25 PM CEST (9/8)
Length of Visible Light 13h 38m
Length of Day
12h 44m
Waning Gibbous, 51% of the Moon is Illuminated
Sep 8
Waning Gibbous
Sep 8
Last Quarter
Sep 16
New
Sep 22
First Quarter
Sep 30
Full

Hourly Weather History & Observations

Time (CEST) Temp. Heat Index Dew Point Humidity Pressure Visibility Wind Dir Wind Speed Gust Speed Precip Events Conditions
12:55 AM 71.6 °F - 64.4 °F 78% 30.12 in 6.2 mi WSW 2.3 mph - N/A   Partly Cloudy
1:55 AM 69.8 °F - 62.6 °F 78% 30.09 in 6.2 mi NNW 3.5 mph - N/A   Partly Cloudy
2:00 AM 69 °F - 63 °F 74% 30.12 in 9 mi NNW 3.5 mph - -   Scattered Clouds
2:55 AM 68.0 °F - 60.8 °F 78% 30.09 in 6.2 mi NNW 4.6 mph - N/A   Partly Cloudy
3:55 AM 66.2 °F - 60.8 °F 83% 30.09 in 6.2 mi Calm Calm - N/A   Partly Cloudy
4:55 AM 66.2 °F - 59.0 °F 78% 30.06 in 6.2 mi WNW 4.6 mph - N/A   Partly Cloudy
5:00 AM 66 °F - 60 °F 75% 30.09 in 6 mi WNW 4.6 mph - -   Scattered Clouds
6:55 AM 62.6 °F - 55.4 °F 77% 30.06 in 3.1 mi Calm Calm - N/A   Scattered Clouds
7:55 AM 64.4 °F - 57.2 °F 77% 30.09 in 4.3 mi NNE 1.2 mph - N/A   Partly Cloudy
8:00 AM 65 °F - 57 °F 68% 30.10 in 4 mi NNE 1.2 mph - -   Mist
9:55 AM 77.0 °F - 62.6 °F 61% 30.09 in 6.2 mi Calm Calm - N/A   Partly Cloudy
10:55 AM 80.6 °F 81.1 °F 59.0 °F 48% 30.09 in 6.2 mi SSE 5.8 mph - N/A   Partly Cloudy
11:00 AM 81 °F - 59 °F 37% 30.10 in 6 mi SSE 5.8 mph - -   Scattered Clouds
11:55 AM 82.4 °F 82.0 °F 57.2 °F 42% 30.09 in 6.2 mi SSE 5.8 mph - N/A   Partly Cloudy
12:55 PM 86.0 °F 84.9 °F 57.2 °F 37% 30.09 in 6.2 mi South 8.1 mph - N/A   Partly Cloudy
1:55 PM 86.0 °F 84.5 °F 55.4 °F 35% 30.06 in 6.2 mi SSE 6.9 mph - N/A   Partly Cloudy
2:00 PM 86 °F - 55 °F 24% 30.08 in 10 mi SSE 6.9 mph - -   Scattered Clouds
2:55 PM 86.0 °F 84.5 °F 55.4 °F 35% 30.06 in 6.2 mi SSE 13.8 mph - N/A   Partly Cloudy
3:55 PM 84.2 °F 83.5 °F 57.2 °F 40% 30.04 in 6.2 mi SE 12.7 mph - N/A   Partly Cloudy
4:55 PM 82.4 °F 82.5 °F 59.0 °F 45% 30.04 in 6.2 mi SE 15.0 mph - N/A   Partly Cloudy
5:00 PM 82 °F - 58 °F 34% 30.04 in 12 mi SE 15.0 mph - -   Scattered Clouds
5:55 PM 80.6 °F 81.1 °F 59.0 °F 48% 30.04 in 6.2 mi SE 10.4 mph - N/A   Partly Cloudy
6:55 PM 78.8 °F - 64.4 °F 61% 30.04 in 6.2 mi SSE 10.4 mph - N/A   Partly Cloudy
7:55 PM 77.0 °F - 62.6 °F 61% 30.04 in 6.2 mi SE 2.3 mph - N/A   Partly Cloudy
8:00 PM 77 °F - 62 °F 51% 30.04 in 7 mi SE 2.3 mph - -   Scattered Clouds
8:55 PM 75.2 °F - 66.2 °F 73% 30.04 in 6.2 mi SE 2.3 mph - N/A   Partly Cloudy
9:55 PM 73.4 °F - 66.2 °F 78% 30.06 in 6.2 mi Calm Calm - N/A   Partly Cloudy
10:55 PM 73.4 °F - 66.2 °F 78% 30.06 in 6.2 mi North 2.3 mph - N/A   Partly Cloudy
11:00 PM 73 °F - 66 °F 72% 30.07 in 6 mi North 2.3 mph - -   Scattered Clouds
11:55 PM 71.6 °F - 64.4 °F 78% 30.06 in 6.2 mi Calm Calm - N/A   Partly Cloudy